Wetterdaten: Dienstag, 03.12.2013
Datum Zeit Temperatur Luftfeuchte Luftdruck Regen Wind Richtung Richtung Taupunkt Windchill Windben
03.12.2013 00:00 -10,8 C 83 % 1026,8 hPa 0,0 l/m 0,0 km/h (0 Bft) N-NO 22 -13,1 C -10,3 C 0,0 km/h (0 Bft)
03.12.2013 00:08 -10,7 C 83 % 1026,7 hPa 0,0 l/m 0,0 km/h (0 Bft) N-NO 22 -13,0 C -10,4 C 0,0 km/h (0 Bft)
03.12.2013 00:10 -10,7 C 83 % 1026,7 hPa 0,0 l/m 0,0 km/h (0 Bft) N-NO 22 -13,0 C -10,4 C 0,0 km/h (0 Bft)
03.12.2013 00:19 -11,3 C 83 % 1026,7 hPa 0,0 l/m 0,0 km/h (0 Bft) N-NO 22 -13,6 C -10,7 C 0,0 km/h (0 Bft)
03.12.2013 00:20 -11,3 C 83 % 1026,7 hPa 0,0 l/m 0,0 km/h (0 Bft) N-NO 22 -13,6 C -10,7 C 0,0 km/h (0 Bft)
03.12.2013 00:30 -10,2 C 84 % 1026,6 hPa 0,0 l/m 0,0 km/h (0 Bft) SO 135 -12,4 C -10,0 C 0,0 km/h (0 Bft)
03.12.2013 00:35 -10,7 C 84 % 1026,6 hPa 0,0 l/m 0,0 km/h (0 Bft) SO 135 -12,9 C -10,0 C 0,0 km/h (0 Bft)
03.12.2013 00:41 -10,8 C 83 % 1026,6 hPa 0,0 l/m 0,0 km/h (0 Bft) SO 135 -13,1 C -10,2 C 0,0 km/h (0 Bft)
03.12.2013 00:45 -11,1 C 83 % 1026,5 hPa 0,0 l/m 0,0 km/h (0 Bft) NO 45 -13,4 C -10,3 C 0,0 km/h (0 Bft)
03.12.2013 00:52 -11,0 C 83 % 1026,5 hPa 0,0 l/m 0,0 km/h (0 Bft) NO 45 -13,3 C -10,3 C 0,0 km/h (0 Bft)
03.12.2013 00:55 -11,0 C 83 % 1026,5 hPa 0,0 l/m 0,0 km/h (0 Bft) NO 45 -13,3 C -10,3 C 0,0 km/h (0 Bft)
03.12.2013 01:03 -11,0 C 83 % 1026,4 hPa 0,0 l/m 0,0 km/h (0 Bft) NO 45 -13,3 C -10,4 C 0,0 km/h (0 Bft)
03.12.2013 01:05 -11,0 C 83 % 1026,4 hPa 0,0 l/m 0,0 km/h (0 Bft) NO 45 -13,3 C -10,4 C 0,0 km/h (0 Bft)
03.12.2013 01:14 -11,1 C 83 % 1026,4 hPa 0,0 l/m 0,0 km/h (0 Bft) NO 45 -13,4 C -10,7 C 0,0 km/h (0 Bft)
03.12.2013 01:15 -11,1 C 83 % 1026,4 hPa 0,0 l/m 0,0 km/h (0 Bft) NO 45 -13,4 C -10,7 C 0,0 km/h (0 Bft)
03.12.2013 01:25 -9,1 C 85 % 1026,8 hPa 0,0 l/m 0,0 km/h (0 Bft) NO 45 -11,1 C -10,0 C 0,0 km/h (0 Bft)
03.12.2013 01:30 -9,8 C 84 % 1026,8 hPa 0,0 l/m 0,0 km/h (0 Bft) NO 45 -12,0 C -9,8 C 0,0 km/h (0 Bft)
03.12.2013 01:36 -9,5 C 85 % 1026,8 hPa 0,0 l/m 0,0 km/h (0 Bft) NO 45 -11,5 C -9,7 C 0,0 km/h (0 Bft)
03.12.2013 01:40 -9,3 C 85 % 1026,8 hPa 0,0 l/m 0,0 km/h (0 Bft) NO 45 -11,3 C -9,5 C 0,0 km/h (0 Bft)
03.12.2013 01:47 -10,6 C 84 % 1027,3 hPa 0,0 l/m 0,0 km/h (0 Bft) NO 45 -12,8 C -9,8 C 0,0 km/h (0 Bft)
03.12.2013 01:50 -10,6 C 84 % 1027,3 hPa 0,0 l/m 0,0 km/h (0 Bft) NO 45 -12,8 C -9,8 C 0,0 km/h (0 Bft)
03.12.2013 01:58 -9,5 C 85 % 1027,3 hPa 0,0 l/m 0,0 km/h (0 Bft) O-SO 112 -11,5 C -9,2 C 0,0 km/h (0 Bft)
03.12.2013 02:00 -9,5 C 85 % 1027,3 hPa 0,0 l/m 0,0 km/h (0 Bft) O-SO 112 -11,5 C -9,2 C 0,0 km/h (0 Bft)
03.12.2013 02:09 -10,4 C 84 % 1026,8 hPa 0,0 l/m 0,0 km/h (0 Bft) NO 45 -12,6 C -9,1 C 0,0 km/h (0 Bft)
03.12.2013 02:10 -10,4 C 84 % 1026,8 hPa 0,0 l/m 0,0 km/h (0 Bft) NO 45 -12,6 C -9,1 C 0,0 km/h (0 Bft)
03.12.2013 02:20 -9,4 C 85 % 1026,8 hPa 0,0 l/m 0,0 km/h (0 Bft) O 90 -11,4 C -9,2 C 0,0 km/h (0 Bft)
03.12.2013 02:25 -9,2 C 86 % 1026,6 hPa 0,0 l/m 0,0 km/h (0 Bft) O-SO 112 -11,1 C -9,1 C 0,0 km/h (0 Bft)
03.12.2013 02:31 -8,1 C 86 % 1026,6 hPa 0,0 l/m 0,0 km/h (0 Bft) O 90 -10,0 C -9,1 C 0,0 km/h (0 Bft)
03.12.2013 02:35 -7,9 C 87 % 1026,6 hPa 0,0 l/m 0,0 km/h (0 Bft) N-NO 22 -9,7 C -8,7 C 0,0 km/h (0 Bft)
03.12.2013 02:42 -7,3 C 88 % 1026,5 hPa 0,0 l/m 0,0 km/h (0 Bft) O-SO 112 -8,9 C -8,8 C 0,0 km/h (0 Bft)
03.12.2013 02:45 -7,3 C 88 % 1026,5 hPa 0,0 l/m 0,0 km/h (0 Bft) O-SO 112 -8,9 C -8,8 C 0,0 km/h (0 Bft)
03.12.2013 02:53 -10,0 C 86 % 1026,5 hPa 0,0 l/m 0,0 km/h (0 Bft) N-NO 22 -11,9 C -9,2 C 0,0 km/h (0 Bft)
03.12.2013 02:55 -10,0 C 86 % 1026,5 hPa 0,0 l/m 0,0 km/h (0 Bft) N-NO 22 -11,9 C -9,2 C 0,0 km/h (0 Bft)
03.12.2013 03:04 -10,2 C 85 % 1026,3 hPa 0,0 l/m 0,0 km/h (0 Bft) N-NO 22 -12,2 C -10,0 C 0,0 km/h (0 Bft)
03.12.2013 03:05 -10,2 C 85 % 1026,3 hPa 0,0 l/m 0,0 km/h (0 Bft) N-NO 22 -12,2 C -10,0 C 0,0 km/h (0 Bft)
03.12.2013 03:15 -10,1 C 85 % 1026,3 hPa 0,0 l/m 0,0 km/h (0 Bft) N-NO 22 -12,1 C -10,1 C 0,0 km/h (0 Bft)
03.12.2013 03:20 -10,1 C 85 % 1026,3 hPa 0,0 l/m 0,0 km/h (0 Bft) N-NO 22 -12,1 C -10,1 C 0,0 km/h (0 Bft)
03.12.2013 03:26 -10,1 C 85 % 1026,0 hPa 0,0 l/m 0,0 km/h (0 Bft) N-NO 22 -12,1 C -9,8 C 0,0 km/h (0 Bft)
03.12.2013 03:30 -10,3 C 84 % 1026,0 hPa 0,0 l/m 0,0 km/h (0 Bft) N-NO 22 -12,5 C -9,9 C 0,0 km/h (0 Bft)
03.12.2013 03:37 -10,5 C 84 % 1026,0 hPa 0,0 l/m 0,0 km/h (0 Bft) N-NO 22 -12,7 C -10,1 C 0,0 km/h (0 Bft)
03.12.2013 03:40 -10,8 C 84 % 1026,0 hPa 0,0 l/m 0,0 km/h (0 Bft) N-NO 22 -13,0 C -10,3 C 0,0 km/h (0 Bft)
03.12.2013 03:48 -10,8 C 83 % 1025,9 hPa 0,0 l/m 0,0 km/h (0 Bft) N-NO 22 -13,1 C -10,8 C 0,0 km/h (0 Bft)
03.12.2013 03:50 -10,8 C 83 % 1025,9 hPa 0,0 l/m 0,0 km/h (0 Bft) N-NO 22 -13,1 C -10,8 C 0,0 km/h (0 Bft)
03.12.2013 03:59 -11,0 C 83 % 1025,9 hPa 0,0 l/m 0,0 km/h (0 Bft) N-NO 22 -13,3 C -10,8 C 0,0 km/h (0 Bft)
03.12.2013 04:00 -11,0 C 83 % 1025,9 hPa 0,0 l/m 0,0 km/h (0 Bft) N-NO 22 -13,3 C -10,8 C 0,0 km/h (0 Bft)
03.12.2013 04:10 -10,4 C 83 % 1025,6 hPa 0,0 l/m 0,0 km/h (0 Bft) O-SO 112 -12,7 C -10,6 C 0,0 km/h (0 Bft)
03.12.2013 04:15 -10,6 C 83 % 1025,6 hPa 0,0 l/m 0,0 km/h (0 Bft) S-SO 157 -12,9 C -10,3 C 0,0 km/h (0 Bft)
03.12.2013 04:21 -11,2 C 83 % 1025,6 hPa 0,0 l/m 0,0 km/h (0 Bft) SO 135 -13,5 C -10,6 C 0,0 km/h (0 Bft)
03.12.2013 04:25 -11,1 C 83 % 1025,9 hPa 0,0 l/m 0,0 km/h (0 Bft) N-NO 22 -13,4 C -10,9 C 0,0 km/h (0 Bft)
03.12.2013 04:32 -11,3 C 83 % 1025,9 hPa 0,0 l/m 0,0 km/h (0 Bft) N-NO 22 -13,6 C -11,1 C 0,0 km/h (0 Bft)
03.12.2013 04:35 -11,2 C 83 % 1025,9 hPa 0,0 l/m 0,0 km/h (0 Bft) N-NO 22 -13,5 C -10,9 C 0,0 km/h (0 Bft)
03.12.2013 04:43 -10,9 C 83 % 1026,0 hPa 0,0 l/m 0,0 km/h (0 Bft) SO 135 -13,2 C -10,7 C 0,0 km/h (0 Bft)
03.12.2013 04:45 -10,9 C 83 % 1026,0 hPa 0,0 l/m 0,0 km/h (0 Bft) SO 135 -13,2 C -10,7 C 0,0 km/h (0 Bft)
03.12.2013 04:54 -11,2 C 83 % 1026,0 hPa 0,0 l/m 0,0 km/h (0 Bft) O 90 -13,5 C -10,6 C 0,0 km/h (0 Bft)
03.12.2013 04:53 -11,2 C 83 % 1026,0 hPa 0,0 l/m 0,0 km/h (0 Bft) O 90 -13,5 C -10,6 C 0,0 km/h (0 Bft)
03.12.2013 05:04 -10,8 C 83 % 1025,8 hPa 0,0 l/m 0,0 km/h (0 Bft) N 360 -13,1 C -10,1 C 0,0 km/h (0 Bft)
03.12.2013 05:05 -10,8 C 83 % 1025,8 hPa 0,0 l/m 0,0 km/h (0 Bft) N 360 -13,1 C -10,1 C 0,0 km/h (0 Bft)
03.12.2013 05:15 -11,2 C 83 % 1025,8 hPa 0,0 l/m 0,0 km/h (0 Bft) N 360 -13,5 C -10,7 C 0,0 km/h (0 Bft)
03.12.2013 05:20 -11,0 C 83 % 1025,8 hPa 0,0 l/m 0,0 km/h (0 Bft) N 360 -13,3 C -10,8 C 0,0 km/h (0 Bft)
03.12.2013 05:26 -10,9 C 83 % 1025,6 hPa 0,0 l/m 0,0 km/h (0 Bft) N 360 -13,2 C -10,7 C 0,0 km/h (0 Bft)
03.12.2013 05:30 -10,8 C 83 % 1025,6 hPa 0,0 l/m 0,0 km/h (0 Bft) N 360 -13,1 C -10,7 C 0,0 km/h (0 Bft)
03.12.2013 05:37 -10,8 C 83 % 1025,6 hPa 0,0 l/m 0,0 km/h (0 Bft) N 360 -13,1 C -10,4 C 0,0 km/h (0 Bft)
03.12.2013 05:40 -10,8 C 83 % 1025,6 hPa 0,0 l/m 0,0 km/h (0 Bft) N 360 -13,1 C -10,4 C 0,0 km/h (0 Bft)
03.12.2013 05:48 -10,4 C 84 % 1025,4 hPa 0,0 l/m 0,0 km/h (0 Bft) N-NO 22 -12,6 C -10,2 C 0,0 km/h (0 Bft)
03.12.2013 05:50 -10,4 C 84 % 1025,4 hPa 0,0 l/m 0,0 km/h (0 Bft) N-NO 22 -12,6 C -10,2 C 0,0 km/h (0 Bft)
03.12.2013 05:59 -9,5 C 84 % 1025,4 hPa 0,0 l/m 0,0 km/h (0 Bft) N 360 -11,7 C -10,0 C 0,0 km/h (0 Bft)
03.12.2013 06:00 -9,5 C 84 % 1025,4 hPa 0,0 l/m 0,0 km/h (0 Bft) N 360 -11,7 C -10,0 C 0,0 km/h (0 Bft)
03.12.2013 06:10 -9,9 C 84 % 1025,6 hPa 0,0 l/m 0,0 km/h (0 Bft) N 360 -12,1 C -9,6 C 0,0 km/h (0 Bft)
03.12.2013 06:15 -10,5 C 84 % 1025,6 hPa 0,0 l/m 0,0 km/h (0 Bft) N 360 -12,7 C -9,7 C 0,0 km/h (0 Bft)
03.12.2013 06:21 -10,8 C 84 % 1025,6 hPa 0,0 l/m 0,0 km/h (0 Bft) N 360 -13,0 C -9,9 C 0,0 km/h (0 Bft)
03.12.2013 06:25 -10,5 C 84 % 1025,6 hPa 0,0 l/m 0,0 km/h (0 Bft) N 360 -12,7 C -9,9 C 0,0 km/h (0 Bft)
03.12.2013 06:32 -10,4 C 84 % 1025,6 hPa 0,0 l/m 0,0 km/h (0 Bft) N 360 -12,6 C -9,4 C 0,0 km/h (0 Bft)
03.12.2013 06:35 -10,4 C 84 % 1025,6 hPa 0,0 l/m 0,0 km/h (0 Bft) N 360 -12,6 C -9,4 C 0,0 km/h (0 Bft)
03.12.2013 06:43 -9,2 C 85 % 1025,8 hPa 0,0 l/m 0,0 km/h (0 Bft) N 360 -11,2 C -9,3 C 0,0 km/h (0 Bft)
03.12.2013 06:45 -9,2 C 85 % 1025,8 hPa 0,0 l/m 0,0 km/h (0 Bft) N 360 -11,2 C -9,3 C 0,0 km/h (0 Bft)
03.12.2013 06:54 -10,2 C 85 % 1025,8 hPa 0,0 l/m 0,0 km/h (0 Bft) O 90 -12,2 C -9,1 C 0,0 km/h (0 Bft)
03.12.2013 06:55 -10,2 C 85 % 1025,8 hPa 0,0 l/m 0,0 km/h (0 Bft) O 90 -12,2 C -9,1 C 0,0 km/h (0 Bft)
03.12.2013 07:05 -9,4 C 85 % 1025,9 hPa 0,0 l/m 0,0 km/h (0 Bft) S-SO 157 -11,4 C -9,0 C 0,0 km/h (0 Bft)
03.12.2013 07:10 -9,5 C 85 % 1025,9 hPa 0,0 l/m 0,0 km/h (0 Bft) S-SO 157 -11,5 C -8,9 C 0,0 km/h (0 Bft)
03.12.2013 07:16 -9,3 C 85 % 1025,9 hPa 0,0 l/m 0,0 km/h (0 Bft) SO 135 -11,3 C -8,9 C 0,0 km/h (0 Bft)
03.12.2013 07:20 -5,9 C 87 % 1025,9 hPa 0,0 l/m 0,0 km/h (0 Bft) O 90 -7,7 C -8,1 C 0,0 km/h (0 Bft)
03.12.2013 07:27 -8,4 C 87 % 1025,8 hPa 0,0 l/m 0,0 km/h (0 Bft) W-SW 247 -10,2 C -7,2 C 0,0 km/h (0 Bft)
03.12.2013 07:30 -8,4 C 87 % 1025,8 hPa 0,0 l/m 0,0 km/h (0 Bft) W-SW 247 -10,2 C -7,2 C 0,0 km/h (0 Bft)
03.12.2013 07:38 -8,5 C 88 % 1025,8 hPa 0,0 l/m 0,0 km/h (0 Bft) NO 45 -10,1 C -8,3 C 0,0 km/h (0 Bft)
03.12.2013 07:40 -8,5 C 88 % 1025,8 hPa 0,0 l/m 0,0 km/h (0 Bft) NO 45 -10,1 C -8,3 C 0,0 km/h (0 Bft)
03.12.2013 07:49 -8,4 C 88 % 1026,0 hPa 0,0 l/m 0,0 km/h (0 Bft) N-NW 337 -10,0 C -8,1 C 0,0 km/h (0 Bft)
03.12.2013 07:50 -8,4 C 88 % 1026,0 hPa 0,0 l/m 0,0 km/h (0 Bft) N-NW 337 -10,0 C -8,1 C 0,0 km/h (0 Bft)
03.12.2013 08:00 -8,2 C 88 % 1026,0 hPa 0,0 l/m 0,0 km/h (0 Bft) W-SW 247 -9,8 C -7,8 C 0,0 km/h (0 Bft)
03.12.2013 08:05 -8,7 C 87 % 1026,4 hPa 0,0 l/m 0,0 km/h (0 Bft) W-SW 247 -10,5 C -8,0 C 0,0 km/h (0 Bft)
03.12.2013 08:11 -8,6 C 87 % 1026,4 hPa 0,0 l/m 0,0 km/h (0 Bft) S 180 -10,4 C -8,0 C 0,0 km/h (0 Bft)
03.12.2013 08:15 -7,1 C 88 % 1026,4 hPa 0,0 l/m 0,0 km/h (0 Bft) NW 315 -8,7 C -7,5 C 0,0 km/h (0 Bft)
03.12.2013 08:22 -8,2 C 88 % 1026,4 hPa 0,0 l/m 0,0 km/h (0 Bft) N 360 -9,8 C -7,6 C 0,0 km/h (0 Bft)
03.12.2013 08:25 -8,2 C 87 % 1026,6 hPa 0,0 l/m 0,0 km/h (0 Bft) N 360 -10,0 C -7,7 C 0,0 km/h (0 Bft)
03.12.2013 08:33 -7,0 C 88 % 1026,6 hPa 0,0 l/m 0,0 km/h (0 Bft) NO 45 -8,6 C -7,4 C 0,0 km/h (0 Bft)
03.12.2013 08:35 -7,0 C 88 % 1026,6 hPa 0,0 l/m 0,0 km/h (0 Bft) NO 45 -8,6 C -7,4 C 0,0 km/h (0 Bft)
03.12.2013 08:44 -7,8 C 88 % 1026,4 hPa 0,0 l/m 0,0 km/h (0 Bft) N 360 -9,4 C -7,0 C 0,0 km/h (0 Bft)
03.12.2013 08:45 -7,8 C 88 % 1026,4 hPa 0,0 l/m 0,0 km/h (0 Bft) N 360 -9,4 C -7,0 C 0,0 km/h (0 Bft)
03.12.2013 08:55 -7,7 C 87 % 1026,4 hPa 0,0 l/m 0,0 km/h (0 Bft) N 360 -9,5 C -7,3 C 0,0 km/h (0 Bft)
03.12.2013 09:00 -7,2 C 88 % 1026,4 hPa 0,0 l/m 0,0 km/h (0 Bft) N 360 -8,8 C -7,0 C 0,0 km/h (0 Bft)
03.12.2013 09:06 -7,1 C 88 % 1026,6 hPa 0,0 l/m 0,0 km/h (0 Bft) N 360 -8,7 C -6,7 C 0,0 km/h (0 Bft)
03.12.2013 09:10 -7,3 C 88 % 1026,6 hPa 0,0 l/m 0,0 km/h (0 Bft) N 360 -8,9 C -6,7 C 0,0 km/h (0 Bft)
03.12.2013 09:17 -7,2 C 88 % 1026,6 hPa 0,0 l/m 0,0 km/h (0 Bft) N 360 -8,8 C -6,7 C 0,0 km/h (0 Bft)
03.12.2013 09:20 -7,0 C 88 % 1026,6 hPa 0,0 l/m 0,0 km/h (0 Bft) N 360 -8,6 C -6,7 C 0,0 km/h (0 Bft)
03.12.2013 09:28 -6,7 C 88 % 1026,7 hPa 0,0 l/m 0,0 km/h (0 Bft) N 360 -8,3 C -6,4 C 0,0 km/h (0 Bft)
03.12.2013 09:30 -6,7 C 88 % 1026,7 hPa 0,0 l/m 0,0 km/h (0 Bft) N 360 -8,3 C -6,4 C 0,0 km/h (0 Bft)
03.12.2013 09:39 -6,4 C 88 % 1026,7 hPa 0,0 l/m 0,0 km/h (0 Bft) N 360 -8,1 C -6,0 C 0,0 km/h (0 Bft)
03.12.2013 09:40 -6,4 C 88 % 1026,7 hPa 0,0 l/m 0,0 km/h (0 Bft) N 360 -8,1 C -6,0 C 0,0 km/h (0 Bft)
03.12.2013 09:50 -6,2 C 88 % 1026,7 hPa 0,0 l/m 0,0 km/h (0 Bft) N 360 -7,9 C -5,6 C 0,0 km/h (0 Bft)
03.12.2013 09:53 -5,9 C 88 % 1026,7 hPa 0,0 l/m 0,0 km/h (0 Bft) N 360 -7,6 C -5,2 C 0,0 km/h (0 Bft)
03.12.2013 10:00 -5,6 C 89 % 1026,7 hPa 0,0 l/m 0,0 km/h (0 Bft) N 360 -7,1 C -5,0 C 0,0 km/h (0 Bft)
03.12.2013 10:05 -5,2 C 89 % 1026,8 hPa 0,0 l/m 0,0 km/h (0 Bft) N 360 -6,7 C -4,8 C 0,0 km/h (0 Bft)
03.12.2013 10:11 -5,1 C 89 % 1026,8 hPa 0,0 l/m 0,0 km/h (0 Bft) N 360 -6,6 C -4,5 C 0,0 km/h (0 Bft)
03.12.2013 10:15 -4,7 C 89 % 1026,8 hPa 0,0 l/m 0,0 km/h (0 Bft) N 360 -6,2 C -4,2 C 0,0 km/h (0 Bft)
03.12.2013 10:22 -4,4 C 90 % 1027,0 hPa 0,0 l/m 0,0 km/h (0 Bft) N 360 -5,8 C -3,9 C 0,0 km/h (0 Bft)
03.12.2013 10:25 -4,4 C 90 % 1027,0 hPa 0,0 l/m 0,0 km/h (0 Bft) N 360 -5,8 C -3,9 C 0,0 km/h (0 Bft)
03.12.2013 10:33 -3,9 C 90 % 1027,0 hPa 0,0 l/m 0,0 km/h (0 Bft) N 360 -5,3 C -3,3 C 0,0 km/h (0 Bft)
03.12.2013 10:35 -3,9 C 90 % 1027,0 hPa 0,0 l/m 0,0 km/h (0 Bft) N 360 -5,3 C -3,3 C 0,0 km/h (0 Bft)
03.12.2013 10:44 -3,6 C 91 % 1027,1 hPa 0,0 l/m 0,0 km/h (0 Bft) N 360 -4,8 C -3,0 C 0,0 km/h (0 Bft)
03.12.2013 10:45 -3,6 C 91 % 1027,1 hPa 0,0 l/m 0,0 km/h (0 Bft) N 360 -4,8 C -3,0 C 0,0 km/h (0 Bft)
03.12.2013 10:55 -3,6 C 91 % 1027,1 hPa 0,0 l/m 0,0 km/h (0 Bft) N 360 -4,8 C -2,9 C 0,0 km/h (0 Bft)
03.12.2013 11:00 -3,6 C 91 % 1027,1 hPa 0,0 l/m 0,0 km/h (0 Bft) N 360 -4,8 C -2,8 C 0,0 km/h (0 Bft)
03.12.2013 11:06 -2,7 C 92 % 1026,8 hPa 0,0 l/m 0,0 km/h (0 Bft) N 360 -3,8 C -2,4 C 0,0 km/h (0 Bft)
03.12.2013 11:10 -2,8 C 92 % 1026,8 hPa 0,0 l/m 0,0 km/h (0 Bft) N 360 -3,9 C -2,2 C 0,0 km/h (0 Bft)
03.12.2013 11:17 -2,7 C 92 % 1026,8 hPa 0,0 l/m 0,0 km/h (0 Bft) N 360 -3,8 C -2,0 C 0,0 km/h (0 Bft)
03.12.2013 11:20 -2,7 C 92 % 1026,8 hPa 0,0 l/m 0,0 km/h (0 Bft) N 360 -3,8 C -2,0 C 0,0 km/h (0 Bft)
03.12.2013 11:28 -2,0 C 93 % 1026,8 hPa 0,0 l/m 0,0 km/h (0 Bft) NO 45 -3,0 C -1,6 C 0,0 km/h (0 Bft)
03.12.2013 11:30 -2,0 C 93 % 1026,8 hPa 0,0 l/m 0,0 km/h (0 Bft) NO 45 -3,0 C -1,6 C 0,0 km/h (0 Bft)
03.12.2013 11:39 -1,7 C 93 % 1026,8 hPa 0,0 l/m 0,0 km/h (0 Bft) N-NO 22 -2,7 C -1,2 C 0,0 km/h (0 Bft)
03.12.2013 11:40 -1,7 C 93 % 1026,8 hPa 0,0 l/m 0,0 km/h (0 Bft) N-NO 22 -2,7 C -1,2 C 0,0 km/h (0 Bft)
03.12.2013 11:50 -1,2 C 93 % 1026,4 hPa 0,0 l/m 0,0 km/h (0 Bft) NO 45 -2,2 C -1,0 C 0,0 km/h (0 Bft)
03.12.2013 11:55 -1,0 C 94 % 1026,4 hPa 0,0 l/m 0,0 km/h (0 Bft) S 180 -1,8 C -0,8 C 0,0 km/h (0 Bft)
03.12.2013 12:01 -0,9 C 94 % 1026,4 hPa 0,0 l/m 0,0 km/h (0 Bft) O 90 -1,7 C -0,6 C 0,0 km/h (0 Bft)
03.12.2013 12:05 -0,9 C 94 % 1026,6 hPa 0,0 l/m 0,0 km/h (0 Bft) NO 45 -1,7 C -0,4 C 0,0 km/h (0 Bft)
03.12.2013 12:12 -0,2 C 94 % 1026,6 hPa 0,0 l/m 0,0 km/h (0 Bft) NO 45 -1,0 C -0,2 C 0,0 km/h (0 Bft)
03.12.2013 12:15 -0,2 C 94 % 1026,6 hPa 0,0 l/m 0,0 km/h (0 Bft) NO 45 -1,0 C -0,2 C 0,0 km/h (0 Bft)
03.12.2013 12:23 0,0 C 95 % 1026,6 hPa 0,0 l/m 0,0 km/h (0 Bft) NO 45 -0,7 C 0,1 C 0,0 km/h (0 Bft)
03.12.2013 12:25 0,0 C 95 % 1026,6 hPa 0,0 l/m 0,0 km/h (0 Bft) NO 45 -0,7 C 0,1 C 0,0 km/h (0 Bft)
03.12.2013 12:34 0,1 C 95 % 1026,6 hPa 0,0 l/m 0,0 km/h (0 Bft) O-SO 112 -0,6 C 0,2 C 0,0 km/h (0 Bft)
03.12.2013 12:35 0,1 C 95 % 1026,6 hPa 0,0 l/m 0,0 km/h (0 Bft) O-SO 112 -0,6 C 0,2 C 0,0 km/h (0 Bft)
03.12.2013 12:45 0,1 C 95 % 1026,4 hPa 0,0 l/m 0,0 km/h (0 Bft) O-SO 112 -0,6 C 0,3 C 0,0 km/h (0 Bft)
03.12.2013 12:50 0,1 C 95 % 1026,4 hPa 0,0 l/m 0,0 km/h (0 Bft) N-NO 22 -0,6 C 0,3 C 0,0 km/h (0 Bft)
03.12.2013 12:56 0,2 C 96 % 1026,4 hPa 0,0 l/m 0,0 km/h (0 Bft) NO 45 -0,4 C 0,3 C 0,0 km/h (0 Bft)
03.12.2013 13:00 0,2 C 95 % 1026,4 hPa 0,0 l/m 0,0 km/h (0 Bft) N-NO 22 -0,5 C 0,3 C 0,0 km/h (0 Bft)
03.12.2013 13:07 0,2 C 96 % 1026,1 hPa 0,0 l/m 0,0 km/h (0 Bft) O-NO 67 -0,4 C 0,4 C 0,0 km/h (0 Bft)
03.12.2013 13:10 0,3 C 96 % 1026,1 hPa 0,0 l/m 0,0 km/h (0 Bft) NO 45 -0,3 C 0,4 C 0,0 km/h (0 Bft)
03.12.2013 13:18 0,5 C 96 % 1026,1 hPa 0,0 l/m 0,0 km/h (0 Bft) O 90 -0,1 C 0,6 C 0,0 km/h (0 Bft)
03.12.2013 13:20 0,5 C 96 % 1026,1 hPa 0,0 l/m 0,0 km/h (0 Bft) O 90 -0,1 C 0,6 C 0,0 km/h (0 Bft)
03.12.2013 13:29 0,7 C 96 % 1026,1 hPa 0,0 l/m 2,7 km/h (1 Bft) NO 45 0,1 C 0,5 C 4,3 km/h (1 Bft)
03.12.2013 13:30 0,7 C 96 % 1026,1 hPa 0,0 l/m 2,7 km/h (1 Bft) NO 45 0,1 C 0,5 C 4,3 km/h (1 Bft)
03.12.2013 13:40 1,0 C 96 % 1026,1 hPa 0,0 l/m 3,5 km/h (1 Bft) NO 45 0,4 C 3,2 C 5,3 km/h (1 Bft)
03.12.2013 13:45 1,2 C 96 % 1026,0 hPa 0,0 l/m 4,3 km/h (1 Bft) O 90 0,6 C 4,3 C 7,6 km/h (2 Bft)
03.12.2013 13:51 1,5 C 96 % 1026,0 hPa 0,0 l/m 5,1 km/h (1 Bft) O 90 0,9 C 4,3 C 5,8 km/h (2 Bft)
03.12.2013 13:55 2,1 C 95 % 1026,0 hPa 0,0 l/m 5,6 km/h (1 Bft) O-NO 67 1,4 C 4,6 C 7,4 km/h (2 Bft)
03.12.2013 14:02 2,2 C 95 % 1026,0 hPa 0,0 l/m 5,6 km/h (1 Bft) O 90 1,5 C 4,7 C 6,4 km/h (2 Bft)
03.12.2013 14:05 2,2 C 94 % 1025,9 hPa 0,0 l/m 5,5 km/h (1 Bft) O 90 1,3 C 5,1 C 6,4 km/h (2 Bft)
03.12.2013 14:13 1,7 C 94 % 1025,9 hPa 0,0 l/m 5,6 km/h (1 Bft) O-NO 67 0,8 C 4,7 C 6,8 km/h (2 Bft)
03.12.2013 14:15 1,7 C 94 % 1025,9 hPa 0,0 l/m 5,6 km/h (1 Bft) O-NO 67 0,8 C 4,7 C 6,8 km/h (2 Bft)
03.12.2013 14:24 1,6 C 94 % 1025,8 hPa 0,0 l/m 6,1 km/h (2 Bft) O 90 0,7 C 2,7 C 7,1 km/h (2 Bft)
03.12.2013 14:25 1,6 C 94 % 1025,8 hPa 0,0 l/m 6,1 km/h (2 Bft) O 90 0,7 C 2,7 C 7,1 km/h (2 Bft)
03.12.2013 14:35 1,7 C 94 % 1025,8 hPa 0,0 l/m 5,6 km/h (1 Bft) O 90 0,8 C 4,1 C 6,0 km/h (2 Bft)
03.12.2013 14:40 1,7 C 95 % 1025,8 hPa 0,0 l/m 5,5 km/h (1 Bft) O 90 1,0 C 3,7 C 7,1 km/h (2 Bft)
03.12.2013 14:46 1,7 C 95 % 1025,6 hPa 0,0 l/m 6,1 km/h (2 Bft) O 90 1,0 C 1,9 C 7,4 km/h (2 Bft)
03.12.2013 14:50 1,5 C 95 % 1025,6 hPa 0,0 l/m 6,1 km/h (2 Bft) O 90 0,8 C 1,4 C 3,7 km/h (1 Bft)
03.12.2013 14:56 1,6 C 95 % 1025,6 hPa 0,0 l/m 5,5 km/h (1 Bft) O 90 0,9 C 1,3 C 6,1 km/h (2 Bft)
03.12.2013 15:00 1,6 C 95 % 1025,6 hPa 0,0 l/m 5,3 km/h (1 Bft) O 90 0,9 C 1,4 C 6,8 km/h (2 Bft)
03.12.2013 15:07 1,6 C 95 % 1025,7 hPa 0,0 l/m 5,8 km/h (2 Bft) O 90 0,9 C 0,1 C 6,4 km/h (2 Bft)
03.12.2013 15:10 1,6 C 95 % 1025,7 hPa 0,0 l/m 5,8 km/h (2 Bft) O 90 0,9 C 0,1 C 6,4 km/h (2 Bft)
03.12.2013 15:18 1,4 C 95 % 1025,7 hPa 0,0 l/m 6,3 km/h (2 Bft) O 90 0,7 C -0,9 C 6,4 km/h (2 Bft)
03.12.2013 15:20 1,4 C 95 % 1025,7 hPa 0,0 l/m 6,3 km/h (2 Bft) O 90 0,7 C -0,9 C 6,4 km/h (2 Bft)
03.12.2013 15:29 1,3 C 95 % 1025,4 hPa 0,0 l/m 6,1 km/h (2 Bft) O 90 0,6 C -0,9 C 7,1 km/h (2 Bft)
03.12.2013 15:30 1,3 C 95 % 1025,4 hPa 0,0 l/m 6,1 km/h (2 Bft) O 90 0,6 C -0,9 C 7,1 km/h (2 Bft)
03.12.2013 15:40 1,0 C 95 % 1025,4 hPa 0,0 l/m 5,8 km/h (2 Bft) O 90 0,3 C -0,8 C 6,1 km/h (2 Bft)
03.12.2013 15:45 0,7 C 95 % 1025,3 hPa 0,0 l/m 5,6 km/h (1 Bft) O-SO 112 -0,0 C -0,9 C 6,4 km/h (2 Bft)
03.12.2013 15:51 0,6 C 95 % 1025,3 hPa 0,0 l/m 5,1 km/h (1 Bft) O-NO 67 -0,1 C -0,8 C 4,2 km/h (1 Bft)
03.12.2013 15:55 0,7 C 95 % 1025,3 hPa 0,0 l/m 4,0 km/h (1 Bft) SO 135 -0,0 C -0,4 C 3,7 km/h (1 Bft)
03.12.2013 16:02 0,6 C 95 % 1025,4 hPa 0,0 l/m 3,1 km/h (1 Bft) O 90 -0,1 C -0,4 C 6,8 km/h (2 Bft)
03.12.2013 16:05 0,6 C 95 % 1025,4 hPa 0,0 l/m 3,1 km/h (1 Bft) O 90 -0,1 C -0,4 C 6,8 km/h (2 Bft)
03.12.2013 16:13 0,5 C 96 % 1025,4 hPa 0,0 l/m 4,8 km/h (1 Bft) W-SW 247 -0,1 C -1,4 C 5,5 km/h (1 Bft)
03.12.2013 16:15 0,5 C 96 % 1025,4 hPa 0,0 l/m 4,8 km/h (1 Bft) W-SW 247 -0,1 C -1,4 C 5,5 km/h (1 Bft)
03.12.2013 16:24 -0,7 C 95 % 1025,6 hPa 0,0 l/m 1,8 km/h (1 Bft) O-NO 67 -1,4 C -0,7 C 2,1 km/h (1 Bft)
03.12.2013 16:25 -0,7 C 95 % 1025,6 hPa 0,0 l/m 1,8 km/h (1 Bft) O-NO 67 -1,4 C -0,7 C 2,1 km/h (1 Bft)
03.12.2013 16:35 -0,5 C 95 % 1025,6 hPa 0,0 l/m 1,8 km/h (1 Bft) O-SO 112 -1,2 C -1,1 C 1,8 km/h (1 Bft)
03.12.2013 16:40 -0,2 C 95 % 1025,6 hPa 0,0 l/m 2,1 km/h (1 Bft) O-NO 67 -0,9 C -1,3 C 4,3 km/h (1 Bft)
03.12.2013 16:46 -1,3 C 95 % 1025,7 hPa 0,0 l/m 1,1 km/h (1 Bft) O-SO 112 -2,0 C -1,4 C 0,0 km/h (0 Bft)
03.12.2013 16:50 -1,1 C 95 % 1025,7 hPa 0,0 l/m 1,1 km/h (1 Bft) O-SO 112 -1,8 C -1,7 C 0,0 km/h (0 Bft)
03.12.2013 16:57 -0,6 C 95 % 1025,7 hPa 0,0 l/m 4,2 km/h (1 Bft) O-NO 67 -1,3 C -2,9 C 4,5 km/h (1 Bft)
03.12.2013 17:00 -0,6 C 95 % 1025,7 hPa 0,0 l/m 4,2 km/h (1 Bft) O-NO 67 -1,3 C -2,9 C 4,5 km/h (1 Bft)
03.12.2013 17:08 -2,0 C 95 % 1025,8 hPa 0,0 l/m 2,1 km/h (1 Bft) O 90 -2,7 C -2,1 C 3,7 km/h (1 Bft)
03.12.2013 17:10 -2,0 C 95 % 1025,8 hPa 0,0 l/m 2,1 km/h (1 Bft) O 90 -2,7 C -2,1 C 3,7 km/h (1 Bft)
03.12.2013 17:19 -1,8 C 95 % 1025,8 hPa 0,0 l/m 2,6 km/h (1 Bft) N-NO 22 -2,5 C -3,0 C 0,0 km/h (0 Bft)
03.12.2013 17:20 -1,8 C 95 % 1025,8 hPa 0,0 l/m 2,6 km/h (1 Bft) N-NO 22 -2,5 C -3,0 C 0,0 km/h (0 Bft)
03.12.2013 17:30 -2,6 C 95 % 1025,6 hPa 0,0 l/m 0,0 km/h (0 Bft) N-NO 22 -3,3 C -3,0 C 0,0 km/h (0 Bft)
03.12.2013 17:35 -2,4 C 95 % 1025,6 hPa 0,0 l/m 0,2 km/h (0 Bft) N-NW 337 -3,1 C -2,9 C 0,0 km/h (0 Bft)
03.12.2013 17:41 -2,8 C 95 % 1025,6 hPa 0,0 l/m 0,2 km/h (0 Bft) N-NO 22 -3,5 C -3,0 C 0,0 km/h (0 Bft)
03.12.2013 17:45 -2,5 C 95 % 1025,6 hPa 0,0 l/m 0,0 km/h (0 Bft) O-NO 67 -3,2 C -2,8 C 0,0 km/h (0 Bft)
03.12.2013 17:52 -3,0 C 95 % 1025,6 hPa 0,0 l/m 0,0 km/h (0 Bft) O 90 -3,7 C -3,0 C 0,0 km/h (0 Bft)
03.12.2013 17:55 -2,6 C 95 % 1025,6 hPa 0,0 l/m 0,0 km/h (0 Bft) NO 45 -3,3 C -3,2 C 0,0 km/h (0 Bft)
03.12.2013 18:03 -3,0 C 95 % 1025,4 hPa 0,0 l/m 0,2 km/h (0 Bft) N 360 -3,7 C -3,3 C 0,0 km/h (0 Bft)
03.12.2013 18:05 -3,0 C 95 % 1025,4 hPa 0,0 l/m 0,2 km/h (0 Bft) N 360 -3,7 C -3,3 C 0,0 km/h (0 Bft)
03.12.2013 18:14 -3,6 C 95 % 1025,4 hPa 0,0 l/m 0,2 km/h (0 Bft) N 360 -4,3 C -3,5 C 0,0 km/h (0 Bft)
03.12.2013 18:15 -3,6 C 95 % 1025,4 hPa 0,0 l/m 0,2 km/h (0 Bft) N 360 -4,3 C -3,5 C 0,0 km/h (0 Bft)
03.12.2013 18:25 -3,2 C 95 % 1025,6 hPa 0,0 l/m 0,0 km/h (0 Bft) N-NO 22 -3,9 C -3,8 C 0,0 km/h (0 Bft)
03.12.2013 18:30 -3,8 C 95 % 1025,6 hPa 0,0 l/m 0,0 km/h (0 Bft) N-NO 22 -4,5 C -3,8 C 0,0 km/h (0 Bft)
03.12.2013 18:36 -4,1 C 95 % 1025,6 hPa 0,0 l/m 0,0 km/h (0 Bft) N-NO 22 -4,8 C -4,1 C 0,0 km/h (0 Bft)
03.12.2013 18:40 -4,5 C 95 % 1025,6 hPa 0,0 l/m 0,5 km/h (0 Bft) N-NO 22 -5,2 C -4,1 C 3,5 km/h (1 Bft)
03.12.2013 18:47 -4,3 C 95 % 1025,5 hPa 0,0 l/m 1,0 km/h (0 Bft) N 360 -5,0 C -4,1 C 0,0 km/h (0 Bft)
03.12.2013 18:50 -3,7 C 95 % 1025,5 hPa 0,0 l/m 1,0 km/h (0 Bft) O-NO 67 -4,4 C -3,9 C 0,0 km/h (0 Bft)
03.12.2013 18:58 -4,3 C 95 % 1025,5 hPa 0,0 l/m 0,2 km/h (0 Bft) N-NW 337 -5,0 C -4,0 C 0,0 km/h (0 Bft)
03.12.2013 19:00 -4,3 C 95 % 1025,5 hPa 0,0 l/m 0,2 km/h (0 Bft) N-NW 337 -5,0 C -4,0 C 0,0 km/h (0 Bft)
03.12.2013 19:09 -4,4 C 94 % 1025,6 hPa 0,0 l/m 0,5 km/h (0 Bft) NO 45 -5,2 C -4,4 C 0,0 km/h (0 Bft)
03.12.2013 19:10 -4,4 C 94 % 1025,6 hPa 0,0 l/m 0,5 km/h (0 Bft) NO 45 -5,2 C -4,4 C 0,0 km/h (0 Bft)
03.12.2013 19:20 -4,3 C 94 % 1025,6 hPa 0,0 l/m 0,5 km/h (0 Bft) N-NO 22 -5,1 C -4,2 C 0,0 km/h (0 Bft)
03.12.2013 19:25 -5,0 C 94 % 1025,4 hPa 0,0 l/m 0,0 km/h (0 Bft) NW 315 -5,8 C -4,5 C 0,0 km/h (0 Bft)
03.12.2013 19:31 -4,9 C 94 % 1025,4 hPa 0,0 l/m 0,0 km/h (0 Bft) NW 315 -5,7 C -4,7 C 0,0 km/h (0 Bft)
03.12.2013 19:35 -4,8 C 94 % 1025,4 hPa 0,0 l/m 0,0 km/h (0 Bft) W-NW 292 -5,6 C -4,7 C 0,0 km/h (0 Bft)
03.12.2013 19:42 -4,7 C 94 % 1025,4 hPa 0,0 l/m 0,0 km/h (0 Bft) W-NW 292 -5,5 C -4,8 C 0,0 km/h (0 Bft)
03.12.2013 19:45 -5,1 C 94 % 1025,6 hPa 0,0 l/m 0,0 km/h (0 Bft) NO 45 -5,9 C -4,9 C 0,0 km/h (0 Bft)
03.12.2013 19:52 -4,9 C 94 % 1025,6 hPa 0,0 l/m 0,0 km/h (0 Bft) NO 45 -5,7 C -5,0 C 0,0 km/h (0 Bft)
03.12.2013 19:55 -4,9 C 94 % 1025,6 hPa 0,0 l/m 0,0 km/h (0 Bft) NO 45 -5,7 C -5,0 C 0,0 km/h (0 Bft)
03.12.2013 20:03 -4,9 C 94 % 1025,6 hPa 0,0 l/m 0,0 km/h (0 Bft) NO 45 -5,7 C -4,8 C 0,0 km/h (0 Bft)
03.12.2013 20:05 -4,9 C 94 % 1025,6 hPa 0,0 l/m 0,0 km/h (0 Bft) NO 45 -5,7 C -4,8 C 0,0 km/h (0 Bft)
03.12.2013 20:14 -5,1 C 94 % 1025,6 hPa 0,0 l/m 0,0 km/h (0 Bft) N-NO 22 -5,9 C -4,9 C 0,0 km/h (0 Bft)
03.12.2013 20:15 -5,1 C 94 % 1025,6 hPa 0,0 l/m 0,0 km/h (0 Bft) N-NO 22 -5,9 C -4,9 C 0,0 km/h (0 Bft)
03.12.2013 20:25 -5,1 C 94 % 1025,5 hPa 0,0 l/m 0,0 km/h (0 Bft) N-NO 22 -5,9 C -4,9 C 0,0 km/h (0 Bft)
03.12.2013 20:30 -4,9 C 94 % 1025,5 hPa 0,0 l/m 0,0 km/h (0 Bft) NO 45 -5,7 C -4,9 C 0,0 km/h (0 Bft)
03.12.2013 20:36 -4,9 C 94 % 1025,5 hPa 0,0 l/m 0,0 km/h (0 Bft) N-NO 22 -5,7 C -4,8 C 0,0 km/h (0 Bft)
03.12.2013 20:40 -4,9 C 94 % 1025,5 hPa 0,0 l/m 0,0 km/h (0 Bft) NW 315 -5,7 C -4,6 C 0,0 km/h (0 Bft)
03.12.2013 20:47 -4,6 C 94 % 1025,2 hPa 0,0 l/m 0,0 km/h (0 Bft) N-NO 22 -5,4 C -4,7 C 0,0 km/h (0 Bft)
03.12.2013 20:50 -4,6 C 94 % 1025,2 hPa 0,0 l/m 0,0 km/h (0 Bft) N-NO 22 -5,4 C -4,7 C 0,0 km/h (0 Bft)
03.12.2013 20:58 -4,5 C 94 % 1025,2 hPa 0,0 l/m 0,0 km/h (0 Bft) NO 45 -5,3 C -4,5 C 0,0 km/h (0 Bft)
03.12.2013 21:00 -4,5 C 94 % 1025,2 hPa 0,0 l/m 0,0 km/h (0 Bft) NO 45 -5,3 C -4,5 C 0,0 km/h (0 Bft)
03.12.2013 21:09 -3,6 C 94 % 1025,5 hPa 0,0 l/m 0,2 km/h (0 Bft) NO 45 -4,4 C -4,3 C 0,0 km/h (0 Bft)
03.12.2013 21:10 -3,6 C 94 % 1025,5 hPa 0,0 l/m 0,2 km/h (0 Bft) NO 45 -4,4 C -4,3 C 0,0 km/h (0 Bft)
03.12.2013 21:20 -4,5 C 94 % 1025,5 hPa 0,0 l/m 0,0 km/h (0 Bft) NW 315 -5,3 C -4,1 C 0,0 km/h (0 Bft)
03.12.2013 21:25 -3,7 C 94 % 1025,5 hPa 0,0 l/m 0,2 km/h (0 Bft) NO 45 -4,5 C -4,3 C 2,7 km/h (1 Bft)
03.12.2013 21:31 -3,4 C 94 % 1025,5 hPa 0,0 l/m 1,0 km/h (0 Bft) NO 45 -4,2 C -4,2 C 2,1 km/h (1 Bft)
03.12.2013 21:35 -3,7 C 94 % 1025,5 hPa 0,0 l/m 1,4 km/h (1 Bft) O-SO 112 -4,5 C -4,1 C 0,0 km/h (0 Bft)
03.12.2013 21:42 -4,5 C 94 % 1025,4 hPa 0,0 l/m 0,0 km/h (0 Bft) O-SO 112 -5,3 C -4,5 C 0,0 km/h (0 Bft)
03.12.2013 21:45 -4,5 C 94 % 1025,4 hPa 0,0 l/m 0,0 km/h (0 Bft) O-SO 112 -5,3 C -4,5 C 0,0 km/h (0 Bft)
03.12.2013 21:53 -4,0 C 94 % 1025,4 hPa 0,0 l/m 0,6 km/h (0 Bft) NO 45 -4,8 C -4,3 C 2,3 km/h (1 Bft)
03.12.2013 21:55 -4,0 C 94 % 1025,4 hPa 0,0 l/m 0,6 km/h (0 Bft) NO 45 -4,8 C -4,3 C 2,3 km/h (1 Bft)
03.12.2013 22:04 -4,3 C 94 % 1025,3 hPa 0,0 l/m 0,6 km/h (0 Bft) S 180 -5,1 C -4,0 C 0,0 km/h (0 Bft)
03.12.2013 22:05 -4,3 C 94 % 1025,3 hPa 0,0 l/m 0,6 km/h (0 Bft) S 180 -5,1 C -4,0 C 0,0 km/h (0 Bft)
03.12.2013 22:15 -4,4 C 94 % 1025,3 hPa 0,0 l/m 0,8 km/h (0 Bft) O 90 -5,2 C -4,1 C 1,9 km/h (1 Bft)
03.12.2013 22:20 -4,0 C 94 % 1025,3 hPa 0,0 l/m 1,1 km/h (1 Bft) O-NO 67 -4,8 C -4,2 C 1,8 km/h (1 Bft)
03.12.2013 22:26 -4,2 C 94 % 1025,2 hPa 0,0 l/m 0,6 km/h (0 Bft) NO 45 -5,0 C -4,2 C 0,0 km/h (0 Bft)
03.12.2013 22:30 -4,8 C 93 % 1025,2 hPa 0,0 l/m 0,2 km/h (0 Bft) NO 45 -5,8 C -4,4 C 0,0 km/h (0 Bft)
03.12.2013 22:37 -5,0 C 93 % 1025,2 hPa 0,0 l/m 0,0 km/h (0 Bft) O-SO 112 -6,0 C -4,7 C 0,0 km/h (0 Bft)
03.12.2013 22:40 -5,0 C 93 % 1025,2 hPa 0,0 l/m 0,0 km/h (0 Bft) O-SO 112 -6,0 C -4,7 C 0,0 km/h (0 Bft)
03.12.2013 22:48 -4,9 C 93 % 1025,1 hPa 0,0 l/m 0,0 km/h (0 Bft) O-SO 112 -5,9 C -4,9 C 0,0 km/h (0 Bft)
03.12.2013 22:50 -4,9 C 93 % 1025,1 hPa 0,0 l/m 0,0 km/h (0 Bft) O-SO 112 -5,9 C -4,9 C 0,0 km/h (0 Bft)
03.12.2013 22:59 -5,3 C 93 % 1025,1 hPa 0,0 l/m 0,0 km/h (0 Bft) N-NO 22 -6,2 C -5,0 C 0,0 km/h (0 Bft)
03.12.2013 23:00 -5,3 C 93 % 1025,1 hPa 0,0 l/m 0,0 km/h (0 Bft) N-NO 22 -6,2 C -5,0 C 0,0 km/h (0 Bft)
03.12.2013 23:10 -5,5 C 93 % 1025,1 hPa 0,0 l/m 0,0 km/h (0 Bft) NW 315 -6,4 C -5,1 C 0,0 km/h (0 Bft)
03.12.2013 23:15 -5,4 C 93 % 1025,1 hPa 0,0 l/m 0,0 km/h (0 Bft) N 360 -6,3 C -5,2 C 0,0 km/h (0 Bft)
03.12.2013 23:21 -5,6 C 92 % 1025,1 hPa 0,0 l/m 0,0 km/h (0 Bft) N 360 -6,7 C -5,2 C 0,0 km/h (0 Bft)
03.12.2013 23:25 -5,9 C 92 % 1025,1 hPa 0,0 l/m 0,0 km/h (0 Bft) N 360 -7,0 C -5,4 C 0,0 km/h (0 Bft)
03.12.2013 23:32 -5,6 C 92 % 1025,1 hPa 0,0 l/m 0,0 km/h (0 Bft) N 360 -6,7 C -5,6 C 0,0 km/h (0 Bft)
03.12.2013 23:35 -5,7 C 92 % 1025,1 hPa 0,0 l/m 0,0 km/h (0 Bft) NW 315 -6,8 C -5,4 C 0,0 km/h (0 Bft)
03.12.2013 23:43 -5,4 C 92 % 1025,1 hPa 0,0 l/m 0,0 km/h (0 Bft) N-NO 22 -6,5 C -5,3 C 0,0 km/h (0 Bft)
03.12.2013 23:45 -5,4 C 92 % 1025,1 hPa 0,0 l/m 0,0 km/h (0 Bft) N-NO 22 -6,5 C -5,3 C 0,0 km/h (0 Bft)
03.12.2013 23:54 -5,5 C 92 % 1025,1 hPa 0,0 l/m 0,0 km/h (0 Bft) N-NO 22 -6,6 C -5,5 C 0,0 km/h (0 Bft)
03.12.2013 23:55 -5,5 C 92 % 1025,1 hPa 0,0 l/m 0,0 km/h (0 Bft) N-NO 22 -6,6 C -5,5 C 0,0 km/h (0 Bft)
_ Min-Zeit 04:32 05:40 23:55 - 23:55 - - 04:32 04:32 23:55
Minimum _ -11,3 C 83 % 1025,1 hPa - 0,0 km/h (0 Bft) - - -13,6 C -11,1 C 0,0 km/h (0 Bft)
_ Max-Zeit 14:05 16:15 02:00 23:55 15:20 - - 14:02 14:05 13:45
Maximum _ 2,2 C 96 % 1027,3 hPa 0,0 l/m 6,3 km/h
O (2 Bft)
- - 1,5 C 5,1 C 7,6 km/h
O (2 Bft)
Durchschnitt _ -5,3 C 90 % 1026,0 hPa #0,0 l/m 0,8 km/h (0 Bft) O - -6,7 C -5,2 C 0,9 km/h (0 Bft)